| time (UTC) | temp F | wind direction | speed MPH | gust MPH | rain 1hr in | rain 24hr in | rain mn in | humidity % | barometer mb |
| 20260508021528 | 47 | 279 | 2.0 | 3.0 | 0.00 | 0.02 | 0.00 | 84 | 1019.2 |
| 20260508020529 | 47 | 271 | 2.0 | 3.0 | 0.00 | 0.02 | 0.00 | 84 | 1019.0 |
| 20260508015526 | 47 | 276 | 1.0 | 3.0 | 0.00 | 0.02 | 0.00 | 84 | 1019.0 |
| 20260508013527 | 47 | 223 | 2.0 | 3.0 | 0.00 | 0.02 | 0.00 | 84 | 1019.0 |
| 20260508012526 | 47 | 221 | 1.0 | 3.0 | 0.00 | 0.02 | 0.00 | 84 | 1019.0 |
| 20260508011529 | 47 | 281 | 0.0 | 3.0 | 0.00 | 0.02 | 0.00 | 84 | 1019.0 |
| 20260508010527 | 47 | 265 | 2.0 | 3.0 | 0.00 | 0.02 | 0.00 | 84 | 1019.1 |
| 20260508005526 | 47 | 252 | 2.0 | 3.0 | 0.00 | 0.02 | 0.00 | 84 | 1019.1 |
| 20260508003527 | 47 | 251 | 4.0 | 5.0 | 0.00 | 0.02 | 0.00 | 84 | 1019.1 |
| 20260508002526 | 47 | 260 | 5.0 | 6.0 | 0.00 | 0.02 | 0.00 | 84 | 1019.1 |
| 20260508001529 | 48 | 259 | 3.0 | 3.0 | 0.00 | 0.02 | 0.00 | 85 | 1019.1 |
| 20260508000526 | 48 | 260 | 3.0 | 4.0 | 0.00 | 0.02 | 0.00 | 85 | 1019.2 |
| 20260507235527 | 48 | 262 | 2.0 | 4.0 | 0.00 | 0.02 | 0.00 | 85 | 1019.2 |
| 20260507234530 | 48 | 229 | 4.0 | 5.0 | 0.00 | 0.02 | 0.00 | 85 | 1019.2 |
| 20260507233526 | 48 | 222 | 3.0 | 5.0 | 0.00 | 0.02 | 0.00 | 85 | 1019.2 |
| 20260507232526 | 48 | 227 | 2.0 | 4.0 | 0.00 | 0.02 | 0.00 | 85 | 1019.2 |
| 20260507230528 | 48 | 240 | 3.0 | 4.0 | 0.00 | 0.02 | 0.00 | 85 | 1018.9 |
| 20260507225526 | 48 | 240 | 2.0 | 3.0 | 0.00 | 0.02 | 0.00 | 85 | 1018.9 |
| 20260507224530 | 48 | 6 | 1.0 | 4.0 | 0.00 | 0.02 | 0.00 | 85 | 1018.9 |
| 20260507223526 | 48 | 9 | 3.0 | 4.0 | 0.00 | 0.02 | 0.00 | 85 | 1018.9 |
| 20260507221528 | 49 | 356 | 0.0 | 4.0 | 0.00 | 0.02 | 0.00 | 85 | 1018.9 |
| 20260507220527 | 49 | 298 | 0.0 | 4.0 | 0.00 | 0.02 | 0.00 | 85 | 1018.7 |
| 20260507215527 | 49 | 298 | 1.0 | 4.0 | 0.00 | 0.02 | 0.00 | 85 | 1018.7 |
| 20260507214530 | 49 | 305 | 3.0 | 4.0 | 0.00 | 0.02 | 0.00 | 85 | 1018.7 |
| 20260507213527 | 49 | 307 | 2.0 | 4.0 | 0.00 | 0.02 | 0.00 | 85 | 1018.7 |
| 20260507212528 | 49 | 307 | 2.0 | 5.0 | 0.00 | 0.02 | 0.00 | 85 | 1018.7 |
| 20260507211528 | 50 | 308 | 3.0 | 4.0 | 0.00 | 0.02 | 0.00 | 85 | 1018.7 |
| 20260507210528 | 50 | 293 | 2.0 | 5.0 | 0.00 | 0.02 | 0.00 | 85 | 1018.1 |
| 20260507205527 | 50 | 290 | 4.0 | 5.0 | 0.00 | 0.02 | 0.00 | 85 | 1018.1 |
| 20260507204529 | 49 | 288 | 3.0 | 5.0 | 0.00 | 0.02 | 0.00 | 85 | 1018.1 |
| 20260507203526 | 50 | 289 | 2.0 | 5.0 | 0.00 | 0.02 | 0.00 | 85 | 1018.1 |
| 20260507202528 | 49 | 292 | 2.0 | 5.0 | 0.00 | 0.02 | 0.00 | 85 | 1018.1 |
| 20260507201531 | 49 | 270 | 5.0 | 5.0 | 0.00 | 0.02 | 0.00 | 85 | 1018.1 |
| 20260507200527 | 49 | 270 | 3.0 | 5.0 | 0.00 | 0.02 | 0.00 | 84 | 1017.5 |
| 20260507195527 | 49 | 270 | 3.0 | 4.0 | 0.00 | 0.02 | 0.00 | 84 | 1017.5 |
| 20260507194530 | 49 | 281 | 4.0 | 4.0 | 0.00 | 0.01 | 0.00 | 84 | 1017.5 |
| 20260507192526 | 49 | 285 | 4.0 | 5.0 | 0.00 | 0.01 | 0.00 | 83 | 1017.5 |
| 20260507184529 | 50 | 272 | 2.0 | 8.0 | 0.00 | 0.01 | 0.00 | 82 | 1017.1 |
| 20260507183526 | 50 | 262 | 2.0 | 8.0 | 0.00 | 0.01 | 0.00 | 82 | 1017.1 |
| 20260507182526 | 50 | 265 | 2.0 | 8.0 | 0.00 | 0.01 | 0.00 | 81 | 1017.1 |
| 20260507181529 | 50 | 152 | 1.0 | 7.0 | 0.00 | 0.01 | 0.00 | 81 | 1017.1 |
| 20260507180528 | 50 | 168 | 2.0 | 12.0 | 0.00 | 0.01 | 0.00 | 80 | 1016.6 |
| 20260507175527 | 50 | 162 | 1.0 | 11.0 | 0.00 | 0.01 | 0.00 | 80 | 1016.6 |
| 20260507174529 | 50 | 165 | 2.0 | 10.0 | 0.00 | 0.01 | 0.00 | 80 | 1016.6 |
| 20260507173525 | 50 | 161 | 3.0 | 12.0 | 0.00 | 0.01 | 0.00 | 80 | 1016.6 |
| 20260507172526 | 51 | 166 | 2.0 | 12.0 | 0.00 | 0.01 | 0.00 | 80 | 1016.6 |
| 20260507171530 | 51 | 155 | 4.0 | 10.0 | 0.00 | 0.00 | 0.00 | 79 | 1016.6 |
| 20260507170528 | 51 | 155 | 5.0 | 11.0 | 0.00 | 0.00 | 0.00 | 79 | 1016.5 |
| 20260507165526 | 51 | 159 | 3.0 | 11.0 | 0.00 | 0.00 | 0.00 | 78 | 1016.5 |
| 20260507164530 | 51 | 124 | 6.0 | 11.0 | 0.00 | 0.00 | 0.00 | 78 | 1016.5 |
| 20260507163526 | 51 | 120 | 5.0 | 13.0 | 0.00 | 0.00 | 0.00 | 78 | 1016.5 |
| 20260507162528 | 51 | 117 | 6.0 | 12.0 | 0.00 | 0.00 | 0.00 | 78 | 1016.5 |
| 20260507161530 | 51 | 121 | 7.0 | 11.0 | 0.00 | 0.00 | 0.00 | 78 | 1016.5 |
| 20260507160526 | 51 | 120 | 8.0 | 14.0 | 0.00 | 0.00 | 0.00 | 78 | 1016.1 |
| 20260507155527 | 51 | 117 | 7.0 | 15.0 | 0.00 | 0.00 | 0.00 | 78 | 1016.1 |
| 20260507154530 | 52 | 98 | 6.0 | 16.0 | 0.00 | 0.00 | 0.00 | 78 | 1016.1 |
| 20260507153528 | 52 | 84 | 8.0 | 13.0 | 0.00 | 0.00 | 0.00 | 78 | 1016.1 |
| 20260507152526 | 52 | 95 | 7.0 | 14.0 | 0.00 | 0.00 | 0.00 | 78 | 1016.1 |
| 20260507151529 | 52 | 92 | 9.0 | 15.0 | 0.00 | 0.00 | 0.00 | 78 | 1016.1 |
| 20260507150529 | 52 | 96 | 9.0 | 17.0 | 0.00 | 0.00 | 0.00 | 78 | 1015.7 |
| 20260507144530 | 52 | 71 | 8.0 | 16.0 | 0.00 | 0.00 | 0.00 | 78 | 1015.7 |
| 20260507143528 | 52 | 79 | 8.0 | 18.0 | 0.00 | 0.00 | 0.00 | 79 | 1015.7 |
| 20260507142527 | 51 | 73 | 9.0 | 19.0 | 0.00 | 0.00 | 0.00 | 79 | 1015.7 |
| 20260507141531 | 51 | 74 | 9.0 | 17.0 | 0.00 | 0.00 | 0.00 | 79 | 1015.7 |
| 20260507140527 | 51 | 77 | 10.0 | 17.0 | 0.00 | 0.00 | 0.00 | 80 | 1015.5 |
| 20260507135528 | 51 | 67 | 8.0 | 16.0 | 0.00 | 0.00 | 0.00 | 80 | 1015.5 |
| 20260507134530 | 51 | 80 | 11.0 | 16.0 | 0.00 | 0.00 | 0.00 | 80 | 1015.5 |
| 20260507133527 | 51 | 69 | 9.0 | 15.0 | 0.00 | 0.00 | 0.00 | 80 | 1015.5 |
| 20260507132527 | 50 | 66 | 9.0 | 16.0 | 0.00 | 0.00 | 0.00 | 80 | 1015.5 |
| 20260507131529 | 50 | 53 | 10.0 | 17.0 | 0.00 | 0.00 | 0.00 | 80 | 1015.5 |
| 20260507130528 | 50 | 70 | 12.0 | 15.0 | 0.00 | 0.00 | 0.00 | 80 | 1015.1 |
| 20260507125525 | 50 | 61 | 11.0 | 15.0 | 0.00 | 0.00 | 0.00 | 80 | 1015.1 |
| 20260507124529 | 50 | 40 | 11.0 | 15.0 | 0.00 | 0.00 | 0.00 | 80 | 1015.1 |
| 20260507123527 | 50 | 21 | 10.0 | 15.0 | 0.00 | 0.00 | 0.00 | 80 | 1015.1 |
| 20260507122527 | 50 | 38 | 11.0 | 15.0 | 0.00 | 0.00 | 0.00 | 80 | 1015.1 |
| 20260507121530 | 50 | 50 | 9.0 | 17.0 | 0.00 | 0.00 | 0.00 | 80 | 1015.1 |
| 20260507120527 | 50 | 60 | 8.0 | 17.0 | 0.00 | 0.00 | 0.00 | 80 | 1014.9 |
| 20260507115526 | 50 | 47 | 7.0 | 17.0 | 0.00 | 0.00 | 0.00 | 81 | 1014.9 |
| 20260507114529 | 49 | 48 | 11.0 | 18.0 | 0.00 | 0.00 | 0.00 | 81 | 1014.9 |
| 20260507113527 | 49 | 45 | 12.0 | 19.0 | 0.00 | 0.00 | 0.00 | 82 | 1014.9 |
| 20260507111530 | 49 | 58 | 10.0 | 18.0 | 0.00 | 0.00 | 0.00 | 82 | 1014.9 |
| 20260507110527 | 49 | 59 | 9.0 | 19.0 | 0.00 | 0.00 | 0.00 | 83 | 1014.5 |
| 20260507105527 | 49 | 52 | 8.0 | 19.0 | 0.00 | 0.01 | 0.00 | 83 | 1014.5 |
| 20260507104529 | 49 | 60 | 12.0 | 17.0 | 0.00 | 0.01 | 0.00 | 83 | 1014.5 |
| 20260507102527 | 49 | 50 | 10.0 | 19.0 | 0.00 | 0.02 | 0.00 | 83 | 1013.6 |
| 20260507101531 | 48 | 46 | 12.0 | 18.0 | 0.00 | 0.03 | 0.00 | 83 | 1013.6 |
| 20260507100527 | 49 | 50 | 11.0 | 18.0 | 0.00 | 0.04 | 0.00 | 83 | 1013.6 |
| 20260507094530 | 49 | 63 | 12.0 | 18.0 | 0.00 | 0.05 | 0.00 | 83 | 1013.6 |
| 20260507092527 | 49 | 61 | 12.0 | 20.0 | 0.00 | 0.06 | 0.00 | 83 | 1013.6 |
| 20260507091530 | 49 | 66 | 12.0 | 17.0 | 0.00 | 0.07 | 0.00 | 83 | 1013.6 |
| 20260507090527 | 48 | 59 | 11.0 | 18.0 | 0.00 | 0.08 | 0.00 | 84 | 1013.0 |
| 20260507085528 | 48 | 50 | 12.0 | 22.0 | 0.00 | 0.09 | 0.00 | 84 | 1013.0 |
| 20260507083527 | 48 | 65 | 15.0 | 22.0 | 0.00 | 0.12 | 0.00 | 84 | 1013.0 |
| 20260507082527 | 48 | 69 | 13.0 | 20.0 | 0.00 | 0.14 | 0.00 | 84 | 1013.0 |
| 20260507080527 | 48 | 51 | 15.0 | 18.0 | 0.00 | 0.16 | 0.00 | 85 | 1012.7 |
| 20260507073527 | 47 | 45 | 10.0 | 17.0 | 0.00 | 0.19 | 0.00 | 85 | 1012.7 |
| 20260507071529 | 47 | 59 | 11.0 | 16.0 | 0.00 | 0.21 | 0.00 | 85 | 1012.7 |
| 20260507070527 | 47 | 54 | 10.0 | 16.0 | 0.00 | 0.22 | 0.00 | 85 | 1012.0 |
| 20260507065526 | 47 | 58 | 11.0 | 17.0 | 0.00 | 0.23 | 0.00 | 85 | 1012.0 |
| 20260507064529 | 47 | 24 | 10.0 | 18.0 | 0.00 | 0.23 | 0.00 | 85 | 1012.0 |
| 20260507063526 | 47 | 30 | 11.0 | 18.0 | 0.00 | 0.24 | 0.00 | 85 | 1012.0 |
| 20260507062526 | 47 | 26 | 11.0 | 17.0 | 0.00 | 0.25 | 0.00 | 85 | 1012.0 |
| 20260507061530 | 47 | 42 | 9.0 | 18.0 | 0.00 | 0.26 | 0.00 | 86 | 1012.0 |
| 20260507060527 | 47 | 33 | 9.0 | 16.0 | 0.00 | 0.26 | 0.00 | 86 | 1011.5 |
| 20260507055526 | 47 | 37 | 8.0 | 17.0 | 0.00 | 0.27 | 0.00 | 86 | 1011.5 |
| 20260507054529 | 47 | 36 | 8.0 | 19.0 | 0.00 | 0.27 | 0.00 | 86 | 1011.5 |
| 20260507053526 | 47 | 26 | 11.0 | 17.0 | 0.00 | 0.28 | 0.00 | 86 | 1011.5 |
| 20260507052526 | 47 | 38 | 9.0 | 17.0 | 0.00 | 0.29 | 0.00 | 86 | 1011.5 |
| 20260507051529 | 46 | 57 | 11.0 | 16.0 | 0.00 | 0.29 | 0.00 | 86 | 1011.5 |
| 20260507050528 | 46 | 66 | 10.0 | 15.0 | 0.00 | 0.30 | 0.00 | 86 | 1011.0 |
| 20260507045527 | 46 | 52 | 9.0 | 15.0 | 0.00 | 0.31 | 0.00 | 86 | 1011.0 |
| 20260507043526 | 46 | 72 | 10.0 | 14.0 | 0.00 | 0.34 | 0.00 | 86 | 1011.0 |
| 20260507042528 | 46 | 81 | 10.0 | 16.0 | 0.00 | 0.35 | 0.00 | 86 | 1011.0 |
| 20260507041530 | 46 | 45 | 10.0 | 17.0 | 0.00 | 0.36 | 0.00 | 86 | 1011.0 |
| 20260507035527 | 46 | 46 | 11.0 | 17.0 | 0.00 | 0.39 | 0.00 | 86 | 1010.7 |
| 20260507034528 | 46 | 42 | 9.0 | 17.0 | 0.00 | 0.40 | 0.00 | 86 | 1010.7 |
| 20260507033528 | 46 | 42 | 9.0 | 15.0 | 0.00 | 0.41 | 0.00 | 86 | 1010.7 |
| 20260507031528 | 46 | 68 | 12.0 | 17.0 | 0.00 | 0.44 | 0.00 | 86 | 1010.7 |
| 20260507025527 | 46 | 66 | 13.0 | 17.0 | 0.00 | 0.48 | 0.00 | 86 | 1010.3 |
| 20260507024529 | 46 | 58 | 7.0 | 16.0 | 0.00 | 0.50 | 0.00 | 86 | 1010.3 |
| 20260507023526 | 46 | 54 | 8.0 | 17.0 | 0.00 | 0.52 | 0.00 | 86 | 1010.3 |
| 20260507022525 | 46 | 53 | 7.0 | 18.0 | 0.00 | 0.54 | 0.00 | 86 | 1010.3 |